TimeEDT,TemperatureF,Dew PointF,Humidity,Sea Level PressureIn,VisibilityMPH,Wind Direction,Wind SpeedMPH,Gust SpeedMPH,PrecipitationIn,Events,Conditions,WindDirDegrees,DateUTC
12:15 AM,74.3,71.1,90,30.00,10.0,Calm,Calm,-,N/A,,Clear,0,2013-05-21 04:15:00
12:35 AM,73.4,71.4,93,30.00,10.0,Calm,Calm,-,N/A,,Clear,0,2013-05-21 04:35:00
12:55 AM,73.4,71.4,93,30.00,10.0,Calm,Calm,-,N/A,,Clear,0,2013-05-21 04:55:00
1:15 AM,73.4,71.2,93,30.00,10.0,Calm,Calm,-,N/A,,Clear,0,2013-05-21 05:15:00
1:35 AM,72.7,71.1,95,29.99,10.0,SSE,3.5,-,N/A,,Clear,160,2013-05-21 05:35:00
1:55 AM,72.5,71.1,95,29.99,10.0,South,4.6,-,N/A,,Clear,170,2013-05-21 05:55:00
2:15 AM,72.0,70.9,96,29.99,10.0,Calm,Calm,-,N/A,,Scattered Clouds,0,2013-05-21 06:15:00
2:35 AM,71.6,70.7,97,29.98,10.0,Calm,Calm,-,N/A,,Scattered Clouds,0,2013-05-21 06:35:00
2:55 AM,71.2,70.3,97,29.97,10.0,Calm,Calm,-,N/A,,Scattered Clouds,0,2013-05-21 06:55:00
3:15 AM,70.9,70.5,99,29.98,10.0,Calm,Calm,-,N/A,,Scattered Clouds,0,2013-05-21 07:15:00
3:35 AM,70.5,70.2,99,29.97,10.0,Calm,Calm,-,N/A,,Mostly Cloudy,0,2013-05-21 07:35:00
3:55 AM,71.1,70.3,98,29.97,10.0,Calm,Calm,-,N/A,,Overcast,0,2013-05-21 07:55:00
4:15 AM,71.4,70.3,96,29.96,10.0,Calm,Calm,-,N/A,,Overcast,0,2013-05-21 08:15:00
4:35 AM,71.2,70.3,97,29.96,10.0,Calm,Calm,-,N/A,,Overcast,0,2013-05-21 08:35:00
4:55 AM,71.2,70.3,97,29.96,10.0,Calm,Calm,-,N/A,,Overcast,0,2013-05-21 08:55:00
5:10 AM,71.1,70.3,98,29.97,10.0,SW,3.5,-,N/A,,Overcast,220,2013-05-21 09:10:00
5:35 AM,71.1,70.3,98,29.98,10.0,SSW,3.5,-,N/A,,Overcast,210,2013-05-21 09:35:00
5:55 AM,71.1,70.5,98,29.99,10.0,SW,3.5,-,N/A,,Overcast,220,2013-05-21 09:55:00
6:15 AM,71.6,70.2,95,30.00,10.0,Calm,Calm,-,N/A,,Overcast,0,2013-05-21 10:15:00
6:35 AM,71.8,70.0,94,30.00,10.0,Calm,Calm,-,N/A,,Overcast,0,2013-05-21 10:35:00
6:55 AM,71.8,69.8,93,30.01,10.0,Calm,Calm,-,N/A,,Overcast,0,2013-05-21 10:55:00
7:15 AM,71.8,70.2,95,30.00,10.0,Calm,Calm,-,N/A,,Overcast,0,2013-05-21 11:15:00
7:35 AM,72.0,70.3,95,30.00,10.0,Calm,Calm,-,N/A,,Overcast,0,2013-05-21 11:35:00
7:55 AM,72.0,70.7,96,30.01,7.0,Calm,Calm,-,N/A,,Overcast,0,2013-05-21 11:55:00
8:15 AM,72.5,70.7,94,30.00,7.0,Calm,Calm,-,N/A,,Overcast,0,2013-05-21 12:15:00
8:35 AM,72.7,70.5,93,30.01,7.0,Calm,Calm,-,N/A,,Overcast,0,2013-05-21 12:35:00
8:55 AM,73.0,70.2,91,30.01,7.0,Calm,Calm,-,N/A,,Overcast,0,2013-05-21 12:55:00
9:15 AM,73.4,70.0,89,30.00,10.0,South,3.5,-,N/A,,Overcast,180,2013-05-21 13:15:00
9:35 AM,73.6,69.8,88,30.01,10.0,SSW,3.5,-,N/A,,Overcast,200,2013-05-21 13:35:00
9:55 AM,73.9,69.6,86,30.01,10.0,SSW,3.5,-,N/A,,Overcast,210,2013-05-21 13:55:00
10:15 AM,74.3,69.8,86,30.00,10.0,South,3.5,-,N/A,,Overcast,190,2013-05-21 14:15:00
10:35 AM,74.8,69.8,84,30.00,10.0,South,3.5,-,N/A,,Overcast,180,2013-05-21 14:35:00
10:55 AM,75.4,69.6,82,30.00,10.0,South,5.8,-,N/A,,Overcast,170,2013-05-21 14:55:00
11:15 AM,76.1,69.6,80,29.99,10.0,SSE,4.6,-,N/A,,Overcast,160,2013-05-21 15:15:00
11:35 AM,76.3,69.4,79,29.99,10.0,South,4.6,-,N/A,,Mostly Cloudy,170,2013-05-21 15:35:00
11:55 AM,78.4,69.8,75,29.99,10.0,South,5.8,-,N/A,,Mostly Cloudy,170,2013-05-21 15:55:00
12:15 PM,78.6,69.4,73,29.99,10.0,SSE,8.1,-,N/A,,Overcast,160,2013-05-21 16:15:00
12:35 PM,78.8,69.8,74,29.99,10.0,South,6.9,-,N/A,,Overcast,190,2013-05-21 16:35:00
12:55 PM,79.0,69.8,73,29.99,10.0,South,9.2,-,N/A,,Overcast,170,2013-05-21 16:55:00
1:15 PM,79.7,70.0,72,29.98,10.0,SSE,4.6,-,N/A,,Overcast,160,2013-05-21 17:15:00
1:35 PM,80.6,69.8,70,29.97,10.0,Calm,Calm,-,N/A,,Mostly Cloudy,0,2013-05-21 17:35:00
1:55 PM,81.1,70.3,70,29.96,10.0,SW,4.6,-,N/A,,Scattered Clouds,230,2013-05-21 17:55:00
2:15 PM,81.5,70.5,69,29.96,10.0,SSW,3.5,-,N/A,,Mostly Cloudy,200,2013-05-21 18:15:00
2:35 PM,82.6,70.3,66,29.95,10.0,South,5.8,-,N/A,,Mostly Cloudy,170,2013-05-21 18:35:00
2:55 PM,83.7,70.5,64,29.95,10.0,SW,4.6,-,N/A,,Scattered Clouds,220,2013-05-21 18:55:00
3:15 PM,84.0,70.7,64,29.93,10.0,SW,3.5,-,N/A,,Clear,220,2013-05-21 19:15:00
3:35 PM,-9999,-9999,N/A,-9999,-9999.0,North,-9999.0,-,N/A,,Unknown,0,2013-05-21 19:35:00
3:55 PM,84.2,69.6,61,29.92,10.0,SSW,4.6,-,N/A,,Clear,200,2013-05-21 19:55:00
4:15 PM,84.7,70.2,61,29.91,10.0,SSW,4.6,-,N/A,,Clear,210,2013-05-21 20:15:00
4:35 PM,85.1,70.0,60,29.91,10.0,Calm,Calm,-,N/A,,Clear,0,2013-05-21 20:35:00
4:55 PM,85.8,70.5,60,29.90,10.0,SSW,4.6,-,N/A,,Clear,210,2013-05-21 20:55:00
5:15 PM,86.0,70.9,60,29.90,10.0,South,4.6,-,N/A,,Clear,190,2013-05-21 21:15:00
5:35 PM,85.8,70.9,61,29.90,10.0,SW,5.8,-,N/A,,Clear,220,2013-05-21 21:35:00
5:55 PM,85.3,70.9,62,29.90,10.0,SW,4.6,-,N/A,,Clear,220,2013-05-21 21:55:00
6:15 PM,84.7,70.0,61,29.89,10.0,South,4.6,-,N/A,,Clear,190,2013-05-21 22:15:00
6:35 PM,84.2,70.2,63,29.90,10.0,SW,6.9,-,N/A,,Clear,220,2013-05-21 22:35:00
6:55 PM,82.6,70.2,66,29.89,10.0,SW,3.5,-,N/A,,Clear,220,2013-05-21 22:55:00
7:15 PM,82.8,70.3,66,29.89,10.0,South,5.8,-,N/A,,Clear,170,2013-05-21 23:15:00
7:35 PM,82.0,70.7,68,29.89,10.0,SSW,3.5,-,N/A,,Clear,210,2013-05-21 23:35:00
7:55 PM,81.1,70.9,71,29.89,10.0,SW,4.6,-,N/A,,Clear,220,2013-05-21 23:55:00
8:15 PM,80.8,70.5,71,29.89,10.0,South,3.5,-,N/A,,Clear,180,2013-05-22 00:15:00
8:35 PM,79.9,70.7,73,29.89,10.0,SSW,3.5,-,N/A,,Clear,210,2013-05-22 00:35:00
8:55 PM,79.7,71.1,75,29.89,10.0,South,4.6,-,N/A,,Clear,180,2013-05-22 00:55:00
9:15 PM,79.0,71.1,77,29.89,10.0,South,3.5,-,N/A,,Clear,170,2013-05-22 01:15:00
9:35 PM,78.4,70.9,77,29.89,10.0,South,3.5,-,N/A,,Clear,180,2013-05-22 01:35:00
9:55 PM,78.1,70.9,78,29.89,10.0,South,3.5,-,N/A,,Clear,170,2013-05-22 01:55:00
10:15 PM,77.5,70.9,80,29.89,10.0,Calm,Calm,-,N/A,,Clear,0,2013-05-22 02:15:00
10:35 PM,77.0,70.9,81,29.90,10.0,Calm,Calm,-,N/A,,Clear,0,2013-05-22 02:35:00
10:55 PM,76.6,70.9,82,29.90,10.0,Calm,Calm,-,N/A,,Clear,0,2013-05-22 02:55:00
11:15 PM,76.8,71.1,82,29.89,10.0,Calm,Calm,-,N/A,,Clear,0,2013-05-22 03:15:00
11:35 PM,76.3,70.9,83,29.89,10.0,Calm,Calm,-,N/A,,Clear,0,2013-05-22 03:35:00
11:55 PM,75.4,70.7,85,29.89,10.0,Calm,Calm,-,N/A,,Clear,0,2013-05-22 03:55:00